Location: Taipo
(41.0000°S, 175.9500°E)
Time: 03:51:29
(UTC+00:00)

Cosmos 2369 Rocket - Pass Details

Date: 18 April 2024
Orbit: 830 x 850 km, 71.0° (Epoch: 22 May)

Event Time Altitude Azimuth Distance (km) Brightness Sun altitude
Rises 17:54:45 0° 2° (N) 3,367 5.4 -11.2°
Reaches altitude 10° 17:57:20 10° 10° (N) 2,444 4.8 -10.7°
Maximum altitude 18:02:25 37° 75° (ENE) 1,294 4.0 -9.7°
Drops below altitude 10° 18:07:36 10° 140° (SE) 2,485 5.1 -8.8°
Sets 18:10:14 0° 148° (SSE) 3,431 5.7 -8.3°
